Weather History for Clarion, IA

Change the Weather History Date:

Tuesday, December 17, 2013

  Actual Average Record
Temperature  
Mean Temperature 19 °F -  
Max Temperature 30 °F 27 °F 95 °F (1997)
Min Temperature 8 °F 11 °F -16 °F (1983)
Degree Days  
Heating Degree Days 46    
Moisture  
Dew Point 17 °F    
Average Humidity 81    
Maximum Humidity 93    
Minimum Humidity 64    
Precipitation  
Precipitation 0.00 in - - ()
Sea Level Pressure  
Sea Level Pressure 30.09 in    
Wind  
Wind Speed 12 mph (West)    
Max Wind Speed 25 mph    
Max Gust Speed 33 mph    
Visibility 10 miles    
Events      
Averages and records for this station are not official NWS values.
T = Trace of Precipitation, MM = Missing Value Source: NWS Daily Summary

Daily Weather History Graph

Daily Weather History Graph

Search for Another Location

Airport:

Trip Planner

Search our weather history database for the weather conditions in past years. The results will help you decide how hot, cold, wet, or windy it might be!

Date:

Astronomy

Dec. 17, 2013 Rise Set
Actual Time 7:40 AM CST 4:42 PM CST
Civil Twilight 7:07 AM CST 5:14 PM CST
Nautical Twilight 6:32 AM CST 5:50 PM CST
Astronomical Twilight 5:57 AM CST 6:24 PM CST
Moon 5:24 PM CST (12/17) 7:35 AM CST (12/17)
Length of Visible Light 10h 07m
Length of Day
9h 02m
Full, 100% of the Moon is Illuminated
Dec 17
Full
Dec 25
Last Quarter
Jan 1
New
Jan 7
First Quarter
Jan 15
Full

Hourly Weather History & Observations

Time (CST) Temp. Windchill Dew Point Humidity Pressure Visibility Wind Dir Wind Speed Gust Speed Precip Events Conditions
12:15 AM 12.2 °F 2.9 °F 10.4 °F 92% 30.04 in 7.0 mi SW 5.8 mph - N/A   Scattered Clouds
12:35 AM 10.4 °F -2.4 °F 8.6 °F 92% 30.02 in 7.0 mi SW 9.2 mph - N/A   Scattered Clouds
12:55 AM 14.0 °F 2.9 °F 10.4 °F 86% 30.01 in 10.0 mi SW 8.1 mph - N/A   Partly Cloudy
1:15 AM 14.0 °F 1.2 °F 12.2 °F 93% 30.03 in 10.0 mi WSW 10.4 mph - N/A   Clear
1:35 AM 17.6 °F 5.7 °F 15.8 °F 93% 30.04 in 10.0 mi WSW 10.4 mph - N/A   Partly Cloudy
1:55 AM 19.4 °F 8.6 °F 15.8 °F 86% 30.03 in 10.0 mi WSW 9.2 mph - N/A   Partly Cloudy
2:15 AM 15.8 °F - 14.0 °F 93% 30.03 in - Calm Calm - N/A   Unknown
2:35 AM 17.6 °F 10.7 °F 15.8 °F 93% 30.04 in 10.0 mi SW 4.6 mph - N/A   Partly Cloudy
2:55 AM 15.8 °F 8.6 °F 14.0 °F 93% 30.03 in 10.0 mi SSW 4.6 mph - N/A   Partly Cloudy
3:15 AM 15.8 °F 5.1 °F 14.0 °F 93% 30.03 in 10.0 mi WSW 8.1 mph - N/A   Clear
3:35 AM 19.4 °F 8.6 °F 17.6 °F 93% 30.03 in 10.0 mi West 9.2 mph - N/A   Scattered Clouds
3:55 AM 26.6 °F 14.3 °F 23.0 °F 86% 30.02 in 10.0 mi West 16.1 mph - N/A   Overcast
4:15 AM 28.4 °F 16.2 °F 24.8 °F 86% 30.02 in 10.0 mi WNW 17.3 mph - N/A   Overcast
4:35 AM 26.6 °F 15.2 °F 23.0 °F 86% 30.01 in 10.0 mi WNW 13.8 mph - N/A   Overcast
4:55 AM 24.8 °F 13.4 °F 21.2 °F 86% 30.01 in 10.0 mi West 12.7 mph - N/A   Mostly Cloudy
5:15 AM 23.0 °F 11.7 °F 21.2 °F 93% 30.02 in 10.0 mi WNW 11.5 mph - N/A   Overcast
5:35 AM 24.8 °F 12.9 °F 21.2 °F 86% 30.02 in 10.0 mi West 13.8 mph - N/A   Overcast
5:55 AM 26.6 °F 15.2 °F 23.0 °F 86% 30.03 in 10.0 mi West 13.8 mph - N/A   Overcast
6:15 AM 26.6 °F 14.3 °F 23.0 °F 86% 30.03 in 10.0 mi West 16.1 mph - N/A   Overcast
6:35 AM 28.4 °F 16.2 °F 24.8 °F 86% 30.02 in 10.0 mi West 17.3 mph 24.2 mph N/A   Overcast
6:55 AM 30.2 °F 17.8 °F 26.6 °F 86% 30.03 in 10.0 mi West 19.6 mph - N/A   Mostly Cloudy
7:15 AM 28.4 °F 15.4 °F 24.8 °F 86% 30.04 in 10.0 mi WNW 19.6 mph - N/A   Mostly Cloudy
7:35 AM 28.4 °F 15.8 °F 24.8 °F 86% 30.04 in 10.0 mi WNW 18.4 mph - N/A   Partly Cloudy
7:55 AM 28.4 °F 16.6 °F 24.8 °F 86% 30.05 in 10.0 mi WNW 16.1 mph 21.9 mph N/A   Partly Cloudy
8:15 AM 26.6 °F 14.7 °F 24.8 °F 93% 30.06 in 10.0 mi WNW 15.0 mph - N/A   Clear
8:35 AM 28.4 °F 16.2 °F 26.6 °F 93% 30.07 in 10.0 mi West 17.3 mph - N/A   Scattered Clouds
8:55 AM 28.4 °F 17.5 °F 24.8 °F 86% 30.08 in 10.0 mi WNW 13.8 mph - N/A   Scattered Clouds
9:15 AM 28.4 °F 15.4 °F 24.8 °F 86% 30.08 in 10.0 mi WNW 19.6 mph 25.3 mph N/A   Clear
9:35 AM 28.4 °F 14.7 °F 23.0 °F 80% 30.08 in 10.0 mi WNW 21.9 mph - N/A   Clear
9:55 AM 30.2 °F 17.1 °F 23.0 °F 75% 30.09 in 10.0 mi WNW 21.9 mph 28.8 mph N/A   Clear
10:15 AM 30.2 °F 17.1 °F 21.2 °F 69% 30.10 in 10.0 mi WNW 21.9 mph - N/A   Clear
10:35 AM 30.2 °F 17.8 °F 21.2 °F 69% 30.11 in 10.0 mi WNW 19.6 mph - N/A   Clear
10:55 AM 30.2 °F 17.4 °F 21.2 °F 69% 30.11 in 10.0 mi WNW 20.7 mph - N/A   Clear
11:15 AM 30.2 °F 18.1 °F 21.2 °F 69% 30.10 in 10.0 mi WNW 18.4 mph 25.3 mph N/A   Clear
11:35 AM 30.2 °F 17.4 °F 21.2 °F 69% 30.10 in 10.0 mi WNW 20.7 mph - N/A   Clear
11:55 AM 30.2 °F 16.8 °F 21.2 °F 69% 30.10 in 10.0 mi WNW 23.0 mph 29.9 mph N/A   Clear
12:15 PM 30.2 °F 16.8 °F 21.2 °F 69% 30.10 in 10.0 mi WNW 23.0 mph 29.9 mph N/A   Clear
12:35 PM 28.4 °F 13.8 °F 21.2 °F 74% 30.10 in 9.0 mi NW 25.3 mph 33.4 mph N/A   Clear
12:55 PM 28.4 °F 14.4 °F 21.2 °F 74% 30.10 in 10.0 mi NW 23.0 mph 31.1 mph N/A   Clear
1:15 PM 28.4 °F 14.1 °F 19.4 °F 69% 30.10 in 10.0 mi WNW 24.2 mph 31.1 mph N/A   Clear
1:35 PM 28.4 °F 14.4 °F 19.4 °F 69% 30.11 in 10.0 mi WNW 23.0 mph 29.9 mph N/A   Clear
1:55 PM 28.4 °F 14.4 °F 19.4 °F 69% 30.11 in 10.0 mi WNW 23.0 mph 29.9 mph N/A   Clear
2:15 PM 28.4 °F 14.7 °F 19.4 °F 69% 30.11 in 10.0 mi WNW 21.9 mph 29.9 mph N/A   Clear
2:35 PM 28.4 °F 14.7 °F 19.4 °F 69% 30.11 in 10.0 mi WNW 21.9 mph 28.8 mph N/A   Clear
2:55 PM 28.4 °F 15.1 °F 17.6 °F 64% 30.12 in 10.0 mi WNW 20.7 mph - N/A   Clear
3:15 PM 26.6 °F 14.3 °F 17.6 °F 69% 30.13 in 10.0 mi WNW 16.1 mph 24.2 mph N/A   Clear
3:35 PM 26.6 °F 14.3 °F 17.6 °F 69% 30.13 in 10.0 mi WNW 16.1 mph - N/A   Clear
3:55 PM 26.6 °F 13.8 °F 17.6 °F 69% 30.13 in 10.0 mi WNW 17.3 mph - N/A   Clear
4:15 PM 26.6 °F 13.4 °F 17.6 °F 69% 30.14 in 10.0 mi WNW 18.4 mph 24.2 mph N/A   Clear
4:35 PM 24.8 °F 11.5 °F 15.8 °F 69% 30.14 in 10.0 mi WNW 17.3 mph - N/A   Clear
4:55 PM 24.8 °F 12.4 °F 15.8 °F 69% 30.14 in 10.0 mi WNW 15.0 mph - N/A   Clear
5:15 PM 23.0 °F 11.1 °F 15.8 °F 74% 30.14 in 10.0 mi WNW 12.7 mph - N/A   Clear
5:35 PM 23.0 °F 11.7 °F 14.0 °F 68% 30.14 in 10.0 mi WNW 11.5 mph - N/A   Clear
5:55 PM 19.4 °F 8.6 °F 12.2 °F 74% 30.14 in 10.0 mi West 9.2 mph - N/A   Clear
6:35 PM 15.8 °F 5.1 °F 12.2 °F 86% 30.15 in 10.0 mi West 8.1 mph - N/A   Clear
6:55 PM 15.8 °F 4.2 °F 12.2 °F 86% 30.15 in 10.0 mi West 9.2 mph - N/A   Clear
7:15 PM 15.8 °F 3.4 °F 10.4 °F 79% 30.16 in 10.0 mi West 10.4 mph - N/A   Clear
7:35 PM 15.8 °F 3.4 °F 12.2 °F 86% 30.16 in 10.0 mi West 10.4 mph - N/A   Clear
7:55 PM 15.8 °F 5.1 °F 10.4 °F 79% 30.16 in 10.0 mi WSW 8.1 mph - N/A   Clear
8:15 PM 12.2 °F 1.7 °F 8.6 °F 85% 30.16 in 10.0 mi WSW 6.9 mph - N/A   Clear
8:35 PM 14.0 °F 2.9 °F 8.6 °F 79% 30.15 in 10.0 mi West 8.1 mph - N/A   Clear
8:55 PM 14.0 °F 6.5 °F 10.4 °F 86% 30.15 in 10.0 mi WSW 4.6 mph - N/A   Clear
9:15 PM 14.0 °F 3.9 °F 10.4 °F 86% 30.15 in 10.0 mi West 6.9 mph - N/A   Clear
9:35 PM 10.4 °F 4.0 °F 6.8 °F 85% 30.15 in 10.0 mi SW 3.5 mph - N/A   Clear
9:55 PM 12.2 °F 4.3 °F 8.6 °F 85% 30.15 in 10.0 mi SW 4.6 mph - N/A   Clear
10:15 PM 10.4 °F 4.0 °F 6.8 °F 85% 30.15 in 10.0 mi WSW 3.5 mph - N/A   Clear
10:35 PM 12.2 °F 6.1 °F 8.6 °F 85% 30.15 in 10.0 mi SSW 3.5 mph - N/A   Clear
10:55 PM 10.4 °F 4.0 °F 6.8 °F 85% 30.14 in 10.0 mi South 3.5 mph - N/A   Clear
11:15 PM 8.6 °F 0.1 °F 5.0 °F 85% 30.14 in 10.0 mi South 4.6 mph - N/A   Clear
11:35 PM 10.4 °F 2.2 °F 6.8 °F 85% 30.13 in 10.0 mi South 4.6 mph - N/A   Clear
11:55 PM 8.6 °F -2.6 °F 5.0 °F 85% 30.12 in 10.0 mi South 6.9 mph - N/A   Clear